SL-8 DEB, 21172

Orbit data source: Space-Track

SL-8 DEB, 21172 is space debris in LEO originally from a launch on Tue, 12 Feb 1991 UTC launched from the Plesetsk Missile And Space Complex (PKMTR). Debris objects in space refer to the collection of defunct objects orbiting the Earth. Examples of debris include non-operational satellites, rocket bodies, and fragments generated from explosions, collisions, or faulty payload assembly.

Loading next visibility...
Identifier
21172, 1991-009AK
Orbit
LEO
Country
Flag of CISCIS
Related business
Manufacturer
Unknown
Mission
Spacecraft
Bus & Motor
Unknown
Mass
Unknown
Launch date (UTC)
1991-02-12 (35 years ago)
Launch vehicle
Unknown
Launch site
Plesetsk Missile And Space Complex (PKMTR)
Object type
Payload
Rocket body
Debris
Shape & HBR
Unknown shape, 0.3 m
Radar Cross Section
Medium (>0.1 m² and <1 m²)

Expand to show TLE details & history
Last TLE update: 11 hours ago

TLE from 11 hours ago
0 SL-8 DEB
1 21172U 91009AK  26071.25794749 -.00000001  00000-0  11682-3 0  9998
2 21172  74.0318  67.0503 0133111 145.1647 227.6981 12.27722843569358
Epoch: 2026-03-12T06:11Z
TLE epoch observation values (Epoch: 2026-03-12T06:11:26.663Z)
Latitude
11.25032°
Longitude
167.52608°
Altitude
1,632.563 km
Speed
7.024 km/s
True Right ascension
04h 41m 11s
True Declination
11° 11' 31"
Sunlit
Object was in daylight at epoch
Visualization orbit readout
Latitude
Unknown
Longitude
Unknown
Altitude
Unknown
Speed
Unknown
Apparent Right ascension
Unknown
Apparent Declination
Unknown
Sunlit
N/A
Visualization observer readout
Local Sidereal Time
21:49:41
Azimuth
Unknown
Elevation
Unknown
Doppler factor
Unknown
Orbital elements
Apogee altitude
1,662.565 km
Perigee altitude
1,451.316 km
Semi-major axis
7,935.078 km
Eccentricity
0.01331
Inclination
74.0318°
RAAN
67.0503°
Arg. of periapsis
145.1647°
True anomaly
226.58252°
Mean anomaly
227.6981°
Eccentric anomaly
227.13906°
Mean motion
3.07055 °/min
Orbital period
117.24 mins
BSTAR
0.00011682
Loading maneuver chart data...
Computing Atmospheric mass density...
Loading historical data...
Loading historical data...
Loading historical data...
Loading historical data...
Loading historical data...
Loading historical data...
Loading historical data...

Documentation

Showing up to 5 results
|